User: anonymous   Login
Location: Fremont
(37.5480°N, 121.9880°W)
Time: 13:53:29
(UTC-07:00)
Language:

Cosmos 1766 - Orbit

View from above orbital plane
View from above orbital plane
View from above satellite
View from above satellite

Ground track
Ground track

The orbit data is extracted from the following two-line orbital elements,

1 16881U 86055A   17113.90162556 +.00002209 +00000-0 +13373-3 0  9998
2 16881 082.5077 076.7746 0013914 288.9916 070.9805 15.10064871673247
Epoch (UTC): 23 April 2017 21:38:20
Eccentricity: 0.0013914
inclination: 82.5077°
perigee height: 526 km
apogee height: 545 km
right ascension of ascending node: 76.7746°
argument of perigee: 288.9916°
revolutions per day: 15.10064871
mean anomaly at epoch: 70.9805°
orbit number at epoch: 67324

The dashed part of the orbit path shows where the satellite is in the earth's shadow,  

DLR